Showing default

OPS 8464 (TRANSIT 5B-7), 1514

Orbit data source: Space-Track

OPS 8464 (TRANSIT 5B-7), 1514 is a payload satellite owned by USN BuWeps (US) in LEO that was launched on Fri, 13 Aug 1965 UTC via a THOR ABLESTAR launch vehicle from the Air Force Western Test Range (AFWTR). Payload-class satellites include a variety of spacecraft equipped with specific instruments for various scientific and technological missions. These include communications satellites like Starlink; space stations such as the ISS; scientific satellites like the Hubble; Earth observation satellites from companies like Planet Labs, Umbra, and HawkEye 360; GPS; miniature CubeSats for education and research; and military/defense satellites.

Loading next visibility...
Identifier
1514, 1965-065F
Orbit
LEO
Country
Flag of USUS
Related business
Manufacturer
NAFI
Mission
Defense Navigation
Bus & Motor
TRANSIT 5, Unknown motor
Mass
~54 kg wet, ~54 kg dry
Launch date (UTC)
1965-08-13 (60 years ago)
Launch vehicle
THOR ABLESTAR
Launch site
Air Force Western Test Range (AFWTR)
Object type
Payload
Rocket body
Debris
Shape & HBR
Oct Cyl + 4 Pan + 1 Rod, Unknown HBR
Radar Cross Section
7.565 m², Large (>1 m²)

Expand to show TLE details & history
Last TLE update: 6 hours ago

TLE from 6 hours ago
0 OPS 8464 (TRANSIT 5B-7)
1 01514U 65065F   25242.88140428  .00000111  00000-0  20045-3 0  9990
2 01514  89.9729 228.2399 0068151 258.3845 166.7039 13.35310766922525
Epoch: 2025-08-30T21:09Z
TLE epoch observation values (Epoch: 2025-08-30T21:09:13.329Z)
Latitude
65.34625°
Longitude
-68.31623°
Altitude
1,187.968 km
Speed
7.241 km/s
True Right ascension
15h 13m 11s
True Declination
65° 13' 23"
Sunlit
Object was in daylight at epoch
Visualization orbit readout
Latitude
Unknown
Longitude
Unknown
Altitude
Unknown
Speed
Unknown
Apparent Right ascension
Unknown
Apparent Declination
Unknown
Sunlit
N/A
Visualization observer readout
Local Sidereal Time
18:55:17
Azimuth
Unknown
Elevation
Unknown
Doppler factor
Unknown
Orbital elements
Apogee altitude
1,174.996 km
Perigee altitude
1,072.742 km
Semi-major axis
7,502.006 km
Eccentricity
0.00682
Inclination
89.9729°
RAAN
228.2399°
Arg. of periapsis
258.3845°
True anomaly
166.88203°
Mean anomaly
166.7039°
Eccentric anomaly
166.79311°
Mean motion
3.34024 °/min
Orbital period
107.78 mins
BSTAR
0.00020045
Loading maneuver chart data...
Computing Atmospheric mass density...
Loading historical data...
Loading historical data...
Loading historical data...
Loading historical data...
Loading historical data...
Loading historical data...
Loading historical data...

Documentation

Showing up to 5 results
|